Location: ?????????
(38.0736°N, 23.2119°E)
Time: 03:53:12
(UTC+00:00)

USA 234 - Pass Details

Date: 18 April 2024
Orbit: 1099 x 1109 km, 123.0° (Epoch: 20 May)

Event Time Altitude Azimuth Distance (km) Brightness Sun altitude
Exits shadow 19:58:40 40° 215° (SW) 1,579 3.9 -29.8°
Maximum altitude 19:59:27 41° 232° (SW) 1,545 4.0 -29.9°
Drops below altitude 10° 20:05:34 10° 301° (WNW) 2,961 6.3 -30.7°
Sets 20:08:13 0° 309° (NW) 3,920 7.3 -31.1°
